| time (UTC) | temp C | wind direction | speed KPH | gust KPH | rain 1hr cm | rain 24hr cm | rain mn cm | humidity % | barometer mb |
| 20260505140358 | 15 | 254 | 3.2 | 4.8 | 0.00 | 1.93 | 1.93 | 99 | 1009.5 |
| 20260505124811 | 13 | 208 | 8.0 | 9.7 | 0.00 | 1.93 | 1.93 | 99 | 1009.7 |
| 20260505124308 | 13 | 143 | 3.2 | 9.7 | 0.00 | 1.93 | 1.93 | 99 | 1009.6 |
| 20260505123804 | 13 | 139 | 8.0 | 9.7 | 0.00 | 1.93 | 1.93 | 99 | 1009.7 |
| 20260505123301 | 13 | 134 | 11.3 | 17.7 | 0.00 | 1.93 | 1.93 | 99 | 1009.8 |
| 20260505122757 | 13 | 207 | 8.0 | 11.3 | 0.00 | 1.93 | 1.93 | 99 | 1009.6 |
| 20260505122255 | 13 | 238 | 1.6 | 4.8 | 0.00 | 1.93 | 1.93 | 99 | 1009.6 |
| 20260505121751 | 13 | 71 | 1.6 | 3.2 | 0.00 | 1.93 | 1.93 | 99 | 1009.8 |
| 20260505121248 | 13 | 156 | 6.4 | 11.3 | 0.00 | 1.93 | 1.93 | 99 | 1009.5 |
| 20260505120744 | 13 | 201 | 6.4 | 8.0 | 0.00 | 1.93 | 1.93 | 99 | 1009.3 |
| 20260505120240 | 13 | 83 | 11.3 | 12.9 | 0.00 | 1.93 | 1.93 | 99 | 1009.6 |
| 20260505115739 | 13 | 104 | 6.4 | 9.7 | 0.00 | 1.93 | 1.93 | 99 | 1009.9 |
| 20260505115237 | 13 | 296 | 0.0 | 1.6 | 0.00 | 1.93 | 1.93 | 99 | 1009.9 |
| 20260505114734 | 13 | 292 | 0.0 | 0.0 | 0.00 | 1.93 | 1.93 | 99 | 1009.9 |
| 20260505114230 | 13 | 254 | 1.6 | 1.6 | 0.00 | 1.93 | 1.93 | 99 | 1010.0 |
| 20260505113727 | 13 | 190 | 0.0 | 0.0 | 0.00 | 1.93 | 1.93 | 99 | 1009.9 |
| 20260505113223 | 13 | 291 | 1.6 | 1.6 | 0.00 | 1.93 | 1.93 | 99 | 1010.0 |
| 20260505112720 | 13 | 272 | 0.0 | 0.0 | 0.00 | 1.93 | 1.93 | 99 | 1010.0 |
| 20260505112218 | 13 | 289 | 0.0 | 0.0 | 0.00 | 1.93 | 1.93 | 99 | 1009.9 |
| 20260505111717 | 13 | 282 | 0.0 | 0.0 | 0.00 | 1.93 | 1.93 | 99 | 1010.1 |
| 20260505111214 | 13 | 270 | 0.0 | 0.0 | 0.00 | 1.93 | 1.93 | 99 | 1010.1 |
| 20260505110709 | 13 | 209 | 0.0 | 0.0 | 0.00 | 1.93 | 1.93 | 99 | 1009.7 |
| 20260505110207 | 13 | 273 | 0.0 | 0.0 | 0.00 | 1.93 | 1.93 | 99 | 1010.2 |
| 20260505102143 | 13 | 272 | 0.0 | 0.0 | 0.13 | 1.93 | 1.93 | 99 | 1009.8 |
| 20260505101641 | 13 | 143 | 1.6 | 1.6 | 0.13 | 1.93 | 1.93 | 99 | 1009.2 |
| 20260505101137 | 13 | 273 | 0.0 | 0.0 | 0.13 | 1.93 | 1.93 | 99 | 1009.7 |
| 20260505100633 | 13 | 299 | 3.2 | 3.2 | 0.18 | 1.91 | 1.91 | 99 | 1010.4 |
| 20260505100130 | 13 | 283 | 0.0 | 0.0 | 0.36 | 1.91 | 1.91 | 99 | 1009.9 |
| 20260505095627 | 13 | 224 | 0.0 | 1.6 | 0.18 | 1.88 | 1.88 | 99 | 1009.7 |
| 20260505095124 | 13 | 299 | 0.0 | 1.6 | 0.18 | 1.88 | 1.88 | 99 | 1010.3 |
| 20260505094620 | 13 | 291 | 0.0 | 0.0 | 0.13 | 1.85 | 1.85 | 99 | 1009.6 |
| 20260505094116 | 13 | 268 | 0.0 | 0.0 | 0.30 | 1.85 | 1.85 | 99 | 1009.1 |
| 20260505093612 | 13 | 262 | 0.0 | 0.0 | 0.48 | 1.83 | 1.83 | 99 | 1009.2 |
| 20260505093110 | 13 | 285 | 0.0 | 0.0 | 0.61 | 1.80 | 1.80 | 99 | 1009.7 |
| 20260505092607 | 13 | 302 | 0.0 | 1.6 | 3.17 | 1.75 | 1.75 | 99 | 1009.6 |
| 20260505092106 | 13 | 275 | 0.0 | 0.0 | 4.85 | 1.70 | 1.70 | 99 | 1009.5 |
| 20260505091602 | 13 | 316 | 4.8 | 8.0 | 3.17 | 1.27 | 1.27 | 99 | 1010.8 |
| 20260505091100 | 13 | 295 | 3.2 | 3.2 | 2.46 | 0.89 | 0.89 | 99 | 1010.7 |
| 20260505090558 | 13 | 325 | 6.4 | 8.0 | 1.50 | 0.71 | 0.71 | 99 | 1010.4 |
| 20260505090056 | 13 | 298 | 3.2 | 4.8 | 0.13 | 0.48 | 0.48 | 99 | 1009.7 |
| 20260505085553 | 13 | 195 | 3.2 | 4.8 | 0.30 | 0.46 | 0.46 | 99 | 1007.4 |
| 20260505085051 | 13 | 123 | 4.8 | 9.7 | 0.61 | 0.46 | 0.46 | 99 | 1007.3 |
| 20260505084549 | 13 | 177 | 4.8 | 8.0 | 0.43 | 0.43 | 0.43 | 98 | 1007.1 |
| 20260505084047 | 13 | 137 | 9.7 | 12.9 | 0.30 | 0.38 | 0.38 | 98 | 1008.2 |
| 20260505083544 | 13 | 269 | 1.6 | 3.2 | 0.48 | 0.36 | 0.36 | 97 | 1007.9 |
| 20260505083040 | 14 | 247 | 4.8 | 4.8 | 0.48 | 0.30 | 0.30 | 96 | 1008.4 |
| 20260505082536 | 14 | 224 | 4.8 | 8.0 | 0.61 | 0.28 | 0.28 | 97 | 1008.8 |
| 20260505082033 | 14 | 169 | 6.4 | 9.7 | 0.79 | 0.23 | 0.23 | 97 | 1008.7 |
| 20260505081529 | 14 | 239 | 0.0 | 1.6 | 0.43 | 0.15 | 0.15 | 96 | 1009.2 |
| 20260505081027 | 14 | 263 | 1.6 | 1.6 | 0.30 | 0.13 | 0.13 | 95 | 1009.0 |
| 20260505080523 | 15 | 189 | 4.8 | 4.8 | 0.30 | 0.10 | 0.10 | 94 | 1009.3 |
| 20260505080020 | 15 | 270 | 3.2 | 4.8 | 0.48 | 0.08 | 0.08 | 93 | 1009.3 |
| 20260505075516 | 15 | 248 | 4.8 | 8.0 | 0.18 | 0.03 | 0.03 | 91 | 1008.6 |
| 20260505075013 | 16 | 285 | 6.4 | 9.7 | 0.00 | 0.00 | 0.00 | 86 | 1008.6 |
| 20260505074510 | 15 | 151 | 4.8 | 8.0 | 0.00 | 0.00 | 0.00 | 85 | 1008.2 |
| 20260505074007 | 16 | 230 | 11.3 | 14.5 | 0.00 | 0.00 | 0.00 | 83 | 1008.2 |
| 20260505073504 | 16 | 216 | 8.0 | 11.3 | 0.00 | 0.00 | 0.00 | 80 | 1008.4 |
| 20260505073002 | 16 | 200 | 8.0 | 12.9 | 0.00 | 0.00 | 0.00 | 76 | 1008.6 |
| 20260505072458 | 17 | 179 | 11.3 | 14.5 | 0.00 | 0.00 | 0.00 | 76 | 1008.7 |
| 20260505071954 | 17 | 338 | 8.0 | 12.9 | 0.00 | 0.00 | 0.00 | 76 | 1008.5 |
| 20260505071450 | 17 | 149 | 8.0 | 11.3 | 0.00 | 0.00 | 0.00 | 76 | 1008.7 |
| 20260505070948 | 17 | 212 | 11.3 | 14.5 | 0.00 | 0.00 | 0.00 | 76 | 1008.9 |
| 20260505070445 | 17 | 257 | 9.7 | 14.5 | 0.00 | 0.00 | 0.00 | 76 | 1009.0 |
| 20260505065940 | 17 | 137 | 12.9 | 14.5 | 0.00 | 0.00 | 0.00 | 76 | 1009.3 |
| 20260505065437 | 17 | 333 | 3.2 | 4.8 | 0.00 | 0.00 | 0.00 | 76 | 1009.2 |
| 20260505064934 | 17 | 180 | 4.8 | 8.0 | 0.00 | 0.00 | 0.00 | 76 | 1009.2 |
| 20260505064431 | 17 | 153 | 11.3 | 14.5 | 0.00 | 0.00 | 0.00 | 76 | 1009.5 |
| 20260505063929 | 17 | 184 | 11.3 | 16.1 | 0.00 | 0.00 | 0.00 | 76 | 1009.6 |
| 20260505063425 | 17 | 227 | 8.0 | 11.3 | 0.00 | 0.00 | 0.00 | 76 | 1009.8 |
| 20260505062922 | 17 | 205 | 4.8 | 9.7 | 0.00 | 0.00 | 0.00 | 76 | 1010.0 |
| 20260505062419 | 17 | 271 | 4.8 | 4.8 | 0.00 | 0.00 | 0.00 | 76 | 1010.0 |
| 20260505061915 | 17 | 239 | 8.0 | 12.9 | 0.00 | 0.00 | 0.00 | 76 | 1009.8 |
| 20260505061414 | 17 | 118 | 11.3 | 14.5 | 0.00 | 0.00 | 0.00 | 76 | 1009.8 |
| 20260505060911 | 17 | 133 | 8.0 | 12.9 | 0.00 | 0.00 | 0.00 | 76 | 1009.7 |
| 20260505060408 | 17 | 172 | 14.5 | 17.7 | 0.00 | 0.00 | 0.00 | 76 | 1009.9 |
| 20260505055904 | 17 | 221 | 16.1 | 25.7 | 0.00 | 0.00 | 0.00 | 76 | 1010.0 |
| 20260505055400 | 17 | 41 | 6.4 | 11.3 | 0.00 | 0.00 | 0.00 | 76 | 1010.2 |
| 20260505054857 | 17 | 205 | 6.4 | 12.9 | 0.00 | 0.00 | 0.00 | 76 | 1009.9 |
| 20260505054354 | 17 | 150 | 8.0 | 11.3 | 0.00 | 0.00 | 0.00 | 76 | 1010.1 |
| 20260505053853 | 17 | 262 | 12.9 | 24.1 | 0.00 | 0.00 | 0.00 | 76 | 1010.1 |
| 20260505053350 | 17 | 168 | 8.0 | 12.9 | 0.00 | 0.00 | 0.00 | 77 | 1009.8 |
| 20260505052846 | 17 | 242 | 4.8 | 9.7 | 0.00 | 0.00 | 0.00 | 76 | 1010.2 |
| 20260505052343 | 17 | 189 | 3.2 | 4.8 | 0.00 | 0.00 | 0.00 | 76 | 1010.4 |
| 20260505051840 | 17 | 180 | 14.5 | 17.7 | 0.00 | 0.00 | 0.00 | 76 | 1010.3 |
| 20260505051337 | 17 | 135 | 0.0 | 0.0 | 0.00 | 0.00 | 0.00 | 76 | 1010.4 |
| 20260505050836 | 17 | 170 | 14.5 | 20.9 | 0.00 | 0.00 | 0.00 | 76 | 1010.4 |
| 20260505050334 | 17 | 97 | 9.7 | 14.5 | 0.00 | 0.00 | 0.00 | 76 | 1010.8 |
| 20260505041301 | 17 | 195 | 11.3 | 12.9 | 0.00 | 0.00 | 0.00 | 75 | 1010.9 |
| 20260505040758 | 17 | 168 | 6.4 | 16.1 | 0.00 | 0.00 | 0.00 | 75 | 1010.9 |
| 20260505040255 | 17 | 286 | 11.3 | 14.5 | 0.00 | 0.00 | 0.00 | 75 | 1011.3 |
| 20260505035752 | 17 | 184 | 6.4 | 8.0 | 0.00 | 0.00 | 0.00 | 75 | 1011.4 |
| 20260505035248 | 17 | 241 | 8.0 | 14.5 | 0.00 | 0.00 | 0.00 | 75 | 1011.3 |
| 20260505034745 | 17 | 293 | 3.2 | 3.2 | 0.00 | 0.00 | 0.00 | 75 | 1011.1 |
| 20260505034242 | 17 | 261 | 8.0 | 11.3 | 0.00 | 0.00 | 0.00 | 74 | 1011.2 |
| 20260505033738 | 17 | 174 | 3.2 | 8.0 | 0.00 | 0.00 | 0.00 | 75 | 1011.3 |
| 20260505033236 | 17 | 250 | 3.2 | 3.2 | 0.00 | 0.00 | 0.00 | 75 | 1011.1 |
| 20260505032734 | 17 | 157 | 12.9 | 20.9 | 0.00 | 0.00 | 0.00 | 75 | 1010.9 |
| 20260505032230 | 17 | 193 | 4.8 | 4.8 | 0.00 | 0.00 | 0.00 | 75 | 1011.2 |
| 20260505031728 | 17 | 262 | 3.2 | 3.2 | 0.00 | 0.00 | 0.00 | 75 | 1011.2 |
| 20260505031224 | 17 | 213 | 6.4 | 12.9 | 0.00 | 0.00 | 0.00 | 75 | 1011.3 |
| 20260505030721 | 17 | 179 | 8.0 | 9.7 | 0.00 | 0.00 | 0.00 | 75 | 1011.2 |
| 20260505030217 | 17 | 267 | 4.8 | 8.0 | 0.00 | 0.00 | 0.00 | 74 | 1011.1 |
| 20260505025713 | 17 | 229 | 1.6 | 3.2 | 0.00 | 0.00 | 0.00 | 74 | 1011.1 |
| 20260505025211 | 17 | 283 | 4.8 | 8.0 | 0.00 | 0.00 | 0.00 | 74 | 1011.2 |
| 20260505024709 | 17 | 191 | 4.8 | 9.7 | 0.00 | 0.00 | 0.00 | 74 | 1011.1 |
| 20260505024206 | 17 | 144 | 8.0 | 11.3 | 0.00 | 0.00 | 0.00 | 74 | 1010.8 |
| 20260505023703 | 17 | 128 | 8.0 | 14.5 | 0.00 | 0.00 | 0.00 | 74 | 1010.6 |
| 20260505023200 | 17 | 166 | 4.8 | 8.0 | 0.00 | 0.00 | 0.00 | 74 | 1010.6 |
| 20260505022658 | 17 | 148 | 11.3 | 20.9 | 0.00 | 0.00 | 0.00 | 73 | 1010.5 |
| 20260505022154 | 17 | 180 | 11.3 | 17.7 | 0.00 | 0.00 | 0.00 | 73 | 1010.5 |
| 20260505021651 | 17 | 248 | 9.7 | 16.1 | 0.00 | 0.00 | 0.00 | 73 | 1010.4 |
| 20260505021148 | 17 | 161 | 3.2 | 3.2 | 0.00 | 0.00 | 0.00 | 73 | 1010.4 |
| 20260505020643 | 17 | 263 | 4.8 | 8.0 | 0.00 | 0.00 | 0.00 | 73 | 1010.4 |
| 20260505020140 | 17 | 189 | 8.0 | 9.7 | 0.00 | 0.00 | 0.00 | 72 | 1010.4 |
| 20260505015637 | 17 | 163 | 4.8 | 4.8 | 0.00 | 0.00 | 0.00 | 73 | 1010.3 |
| 20260505015133 | 17 | 202 | 8.0 | 11.3 | 0.00 | 0.00 | 0.00 | 72 | 1010.4 |
| 20260505014630 | 18 | 259 | 12.9 | 17.7 | 0.00 | 0.00 | 0.00 | 71 | 1010.2 |
| 20260505014127 | 17 | 265 | 3.2 | 3.2 | 0.00 | 0.00 | 0.00 | 72 | 1010.4 |
| 20260505013625 | 18 | 281 | 4.8 | 9.7 | 0.00 | 0.00 | 0.00 | 72 | 1010.1 |
| 20260505013122 | 18 | 203 | 4.8 | 8.0 | 0.00 | 0.00 | 0.00 | 71 | 1010.2 |
| 20260505012620 | 18 | 233 | 12.9 | 17.7 | 0.00 | 0.00 | 0.00 | 71 | 1010.2 |
| 20260505012111 | 18 | 217 | 8.0 | 11.3 | 0.00 | 0.00 | 0.00 | 71 | 1010.0 |
| 20260505011607 | 18 | 90 | 11.3 | 17.7 | 0.00 | 0.00 | 0.00 | 71 | 1010.0 |
| 20260505011105 | 18 | 194 | 6.4 | 16.1 | 0.00 | 0.00 | 0.00 | 72 | 1010.2 |
| 20260505010604 | 18 | 173 | 4.8 | 8.0 | 0.00 | 0.00 | 0.00 | 71 | 1010.1 |
| 20260505005557 | 18 | 211 | 8.0 | 14.5 | 0.00 | 0.00 | 0.00 | 70 | 1010.1 |
| 20260505005055 | 18 | 137 | 11.3 | 14.5 | 0.00 | 0.00 | 0.00 | 71 | 1009.9 |
| 20260505004552 | 18 | 251 | 11.3 | 12.9 | 0.00 | 0.00 | 0.00 | 71 | 1010.0 |
| 20260505004049 | 18 | 315 | 8.0 | 11.3 | 0.00 | 0.00 | 0.00 | 70 | 1009.9 |
| 20260505003546 | 18 | 213 | 9.7 | 17.7 | 0.00 | 0.00 | 0.00 | 70 | 1009.9 |
| 20260505003044 | 18 | 253 | 11.3 | 12.9 | 0.00 | 0.00 | 0.00 | 70 | 1009.9 |
| 20260505002543 | 18 | 134 | 14.5 | 24.1 | 0.00 | 0.00 | 0.00 | 69 | 1010.1 |
| 20260505002037 | 18 | 228 | 9.7 | 12.9 | 0.00 | 0.00 | 0.00 | 69 | 1010.0 |
| 20260505001534 | 19 | 147 | 11.3 | 17.7 | 0.00 | 0.00 | 0.00 | 68 | 1009.8 |
| 20260505001031 | 19 | 210 | 4.8 | 8.0 | 0.00 | 0.00 | 0.00 | 68 | 1010.0 |
| 20260505000528 | 19 | 135 | 6.4 | 11.3 | 0.00 | 0.00 | 0.00 | 67 | 1010.3 |
| 20260505000026 | 19 | 31 | 8.0 | 12.9 | 0.00 | 0.00 | 0.00 | 67 | 1010.1 |
| 20260504235522 | 20 | 259 | 4.8 | 4.8 | 0.00 | 0.00 | 0.00 | 67 | 1010.2 |
| 20260504235019 | 20 | 74 | 17.7 | 24.1 | 0.00 | 0.00 | 0.00 | 65 | 1009.8 |
| 20260504234516 | 20 | 232 | 3.2 | 3.2 | 0.00 | 0.00 | 0.00 | 64 | 1010.0 |
| 20260504234013 | 20 | 154 | 11.3 | 14.5 | 0.00 | 0.00 | 0.00 | 64 | 1010.2 |
| 20260504233508 | 20 | 167 | 6.4 | 11.3 | 0.00 | 0.00 | 0.00 | 65 | 1010.1 |
| 20260504233005 | 20 | 166 | 4.8 | 8.0 | 0.00 | 0.00 | 0.00 | 64 | 1010.2 |
| 20260504232502 | 20 | 139 | 9.7 | 16.1 | 0.00 | 0.00 | 0.00 | 64 | 1009.9 |
| 20260504232000 | 20 | 157 | 9.7 | 14.5 | 0.00 | 0.00 | 0.00 | 64 | 1010.2 |
| 20260504231457 | 20 | 217 | 8.0 | 12.9 | 0.00 | 0.00 | 0.00 | 64 | 1010.4 |
| 20260504230953 | 20 | 188 | 8.0 | 11.3 | 0.00 | 0.00 | 0.00 | 64 | 1010.2 |
| 20260504230450 | 20 | 151 | 4.8 | 4.8 | 0.00 | 0.00 | 0.00 | 64 | 1010.4 |
| 20260504225949 | 20 | 217 | 4.8 | 9.7 | 0.00 | 0.00 | 0.00 | 64 | 1010.6 |
| 20260504225445 | 20 | 166 | 6.4 | 14.5 | 0.00 | 0.00 | 0.00 | 62 | 1010.5 |
| 20260504224942 | 20 | 192 | 6.4 | 9.7 | 0.00 | 0.00 | 0.00 | 63 | 1010.7 |
| 20260504224439 | 20 | 180 | 6.4 | 14.5 | 0.00 | 0.00 | 0.00 | 62 | 1010.5 |
| 20260504223936 | 20 | 110 | 8.0 | 11.3 | 0.00 | 0.00 | 0.00 | 62 | 1010.7 |
| 20260504223431 | 20 | 230 | 11.3 | 16.1 | 0.00 | 0.00 | 0.00 | 62 | 1010.8 |
| 20260504222927 | 21 | 271 | 3.2 | 4.8 | 0.00 | 0.00 | 0.00 | 62 | 1010.8 |
| 20260504222425 | 21 | 234 | 4.8 | 8.0 | 0.00 | 0.00 | 0.00 | 62 | 1010.7 |
| 20260504221923 | 21 | 230 | 6.4 | 8.0 | 0.00 | 0.00 | 0.00 | 61 | 1010.6 |
| 20260504221419 | 21 | 205 | 8.0 | 9.7 | 0.00 | 0.00 | 0.00 | 61 | 1010.8 |
| 20260504220916 | 21 | 168 | 8.0 | 12.9 | 0.00 | 0.00 | 0.00 | 60 | 1010.8 |
| 20260504220413 | 21 | 206 | 8.0 | 12.9 | 0.00 | 0.00 | 0.00 | 61 | 1011.3 |
| 20260504215910 | 21 | 194 | 14.5 | 22.5 | 0.00 | 0.00 | 0.00 | 60 | 1011.1 |
| 20260504215407 | 21 | 243 | 4.8 | 8.0 | 0.00 | 0.00 | 0.00 | 60 | 1011.1 |
| 20260504214903 | 21 | 274 | 4.8 | 8.0 | 0.00 | 0.00 | 0.00 | 60 | 1010.9 |
| 20260504214400 | 21 | 175 | 6.4 | 8.0 | 0.00 | 0.00 | 0.00 | 59 | 1011.2 |
| 20260504213856 | 21 | 287 | 9.7 | 14.5 | 0.00 | 0.00 | 0.00 | 59 | 1011.2 |
| 20260504213352 | 21 | 188 | 6.4 | 12.9 | 0.00 | 0.00 | 0.00 | 59 | 1011.2 |
| 20260504212850 | 22 | 236 | 6.4 | 8.0 | 0.00 | 0.00 | 0.00 | 56 | 1011.5 |
| 20260504212346 | 22 | 294 | 6.4 | 9.7 | 0.00 | 0.00 | 0.00 | 57 | 1011.6 |
| 20260504211844 | 22 | 216 | 4.8 | 4.8 | 0.00 | 0.00 | 0.00 | 57 | 1011.6 |
| 20260504211339 | 22 | 98 | 6.4 | 12.9 | 0.00 | 0.00 | 0.00 | 58 | 1011.5 |
| 20260504210837 | 22 | 233 | 12.9 | 17.7 | 0.00 | 0.00 | 0.00 | 55 | 1011.5 |
| 20260504210334 | 22 | 184 | 4.8 | 8.0 | 0.00 | 0.00 | 0.00 | 56 | 1011.4 |
| 20260504205831 | 22 | 292 | 11.3 | 16.1 | 0.00 | 0.00 | 0.00 | 56 | 1011.5 |
| 20260504205329 | 22 | 152 | 11.3 | 22.5 | 0.00 | 0.00 | 0.00 | 55 | 1011.6 |
| 20260504204827 | 23 | 242 | 1.6 | 1.6 | 0.00 | 0.00 | 0.00 | 54 | 1011.4 |
| 20260504204325 | 23 | 134 | 9.7 | 14.5 | 0.00 | 0.00 | 0.00 | 54 | 1011.4 |
| 20260504203824 | 22 | 123 | 4.8 | 8.0 | 0.00 | 0.00 | 0.00 | 57 | 1011.8 |
| 20260504203321 | 22 | 272 | 1.6 | 3.2 | 0.00 | 0.00 | 0.00 | 56 | 1011.8 |
| 20260504202817 | 22 | 320 | 8.0 | 9.7 | 0.00 | 0.00 | 0.00 | 56 | 1011.9 |
| 20260504202314 | 22 | 239 | 1.6 | 3.2 | 0.00 | 0.00 | 0.00 | 56 | 1012.2 |
| 20260504201810 | 22 | 90 | 8.0 | 12.9 | 0.00 | 0.00 | 0.00 | 56 | 1012.1 |
| 20260504201308 | 22 | 287 | 6.4 | 11.3 | 0.00 | 0.00 | 0.00 | 55 | 1012.3 |
| 20260504200805 | 22 | 256 | 8.0 | 11.3 | 0.00 | 0.00 | 0.00 | 57 | 1012.1 |
| 20260504200301 | 21 | 156 | 8.0 | 14.5 | 0.00 | 0.00 | 0.00 | 57 | 1011.9 |
| 20260504195757 | 22 | 169 | 24.1 | 33.8 | 0.00 | 0.00 | 0.00 | 56 | 1012.1 |
| 20260504195253 | 22 | 256 | 3.2 | 3.2 | 0.00 | 0.00 | 0.00 | 56 | 1012.1 |
| 20260504194751 | 23 | 269 | 4.8 | 9.7 | 0.00 | 0.00 | 0.00 | 56 | 1012.1 |
| 20260504194247 | 23 | 215 | 6.4 | 8.0 | 0.00 | 0.00 | 0.00 | 56 | 1012.3 |
| 20260504193743 | 22 | 294 | 3.2 | 4.8 | 0.00 | 0.00 | 0.00 | 55 | 1012.3 |
| 20260504193241 | 23 | 311 | 6.4 | 17.7 | 0.00 | 0.00 | 0.00 | 55 | 1012.2 |
| 20260504192739 | 23 | 263 | 4.8 | 8.0 | 0.00 | 0.00 | 0.00 | 58 | 1012.5 |
| 20260504192236 | 22 | 290 | 3.2 | 3.2 | 0.00 | 0.00 | 0.00 | 56 | 1012.4 |
| 20260504191735 | 22 | 264 | 3.2 | 4.8 | 0.00 | 0.00 | 0.00 | 56 | 1012.4 |
| 20260504191231 | 22 | 154 | 4.8 | 11.3 | 0.00 | 0.00 | 0.00 | 57 | 1012.9 |
| 20260504190727 | 22 | 245 | 6.4 | 8.0 | 0.00 | 0.00 | 0.00 | 55 | 1013.0 |
| 20260504190224 | 22 | 275 | 3.2 | 3.2 | 0.00 | 0.00 | 0.00 | 58 | 1012.8 |
| 20260504185720 | 22 | 293 | 1.6 | 3.2 | 0.00 | 0.00 | 0.00 | 56 | 1012.7 |
| 20260504185217 | 23 | 316 | 0.0 | 1.6 | 0.00 | 0.00 | 0.00 | 56 | 1012.8 |
| 20260504184713 | 22 | 215 | 4.8 | 8.0 | 0.00 | 0.00 | 0.00 | 55 | 1012.9 |
| 20260504184209 | 22 | 274 | 3.2 | 3.2 | 0.00 | 0.00 | 0.00 | 55 | 1013.1 |
| 20260504183705 | 22 | 191 | 1.6 | 1.6 | 0.00 | 0.00 | 0.00 | 59 | 1012.8 |
| 20260504183202 | 21 | 121 | 16.1 | 24.1 | 0.00 | 0.00 | 0.00 | 58 | 1012.9 |
| 20260504182700 | 21 | 232 | 9.7 | 12.9 | 0.00 | 0.00 | 0.00 | 58 | 1013.3 |
| 20260504182157 | 22 | 206 | 3.2 | 3.2 | 0.00 | 0.00 | 0.00 | 59 | 1013.2 |
| 20260504181655 | 22 | 282 | 8.0 | 12.9 | 0.00 | 0.00 | 0.00 | 59 | 1013.4 |
| 20260504181152 | 21 | 173 | 11.3 | 16.1 | 0.00 | 0.00 | 0.00 | 60 | 1013.2 |
| 20260504180651 | 22 | 168 | 11.3 | 17.7 | 0.00 | 0.00 | 0.00 | 57 | 1013.2 |
| 20260504180149 | 22 | 259 | 3.2 | 4.8 | 0.00 | 0.00 | 0.00 | 57 | 1013.1 |
| 20260504175646 | 21 | 3 | 4.8 | 4.8 | 0.00 | 0.00 | 0.00 | 58 | 1013.3 |
| 20260504175143 | 21 | 285 | 4.8 | 4.8 | 0.00 | 0.00 | 0.00 | 57 | 1013.2 |
| 20260504174641 | 22 | 84 | 1.6 | 4.8 | 0.00 | 0.00 | 0.00 | 58 | 1013.5 |
| 20260504174137 | 22 | 262 | 4.8 | 8.0 | 0.00 | 0.00 | 0.00 | 58 | 1013.5 |
| 20260504173635 | 22 | 213 | 3.2 | 4.8 | 0.00 | 0.00 | 0.00 | 57 | 1013.6 |
| 20260504173132 | 22 | 238 | 3.2 | 4.8 | 0.00 | 0.00 | 0.00 | 58 | 1013.5 |
| 20260504172628 | 21 | 295 | 8.0 | 11.3 | 0.00 | 0.00 | 0.00 | 56 | 1013.7 |
| 20260504172126 | 21 | 222 | 8.0 | 16.1 | 0.00 | 0.00 | 0.00 | 57 | 1013.7 |
| 20260504171622 | 21 | 234 | 8.0 | 12.9 | 0.00 | 0.00 | 0.00 | 57 | 1013.8 |
| 20260504171119 | 21 | 180 | 6.4 | 9.7 | 0.00 | 0.00 | 0.00 | 57 | 1013.9 |
| 20260504170615 | 22 | 131 | 14.5 | 25.7 | 0.00 | 0.00 | 0.00 | 55 | 1014.0 |
| 20260504170113 | 22 | 211 | 4.8 | 8.0 | 0.00 | 0.00 | 0.00 | 56 | 1013.7 |
| 20260504150958 | 20 | 220 | 1.6 | 3.2 | 0.00 | 0.00 | 0.00 | 59 | 1014.5 |
| 20260504150455 | 20 | 337 | 4.8 | 8.0 | 0.00 | 0.00 | 0.00 | 59 | 1014.5 |